COSMOS 2477 (745)

Last updated on Sun Jun 21 2026 00:03:28 GMT+0000 (Coordinated Universal Time)

1 37868U 11064B 26171.26952727 -.00000039 00000+0 00000+0 0 9992 2 37868 65.2782 72.8466 0019648 240.0065 309.6330 2.13102843113825
UTC large
Height (km)
Speed (km/s)
/
Latitude / Longitude
Inclination (degrees)
Orbital Period (minutes)
Azimuth
Elevation
Range (km)
Doppler Factor

Next 0 passes for location: London (51.5072 / 0.1276)

No passes found over London.
COSMOS 2477 (745)